Location: Villingen
(48.0639°N, 8.4609°E)
Time: 02:06:52
(UTC+01:00)

ISS - Pass Details

Date: 06 January 2018
Orbit: 401 x 406 km, 51.6° (Epoch: 17 January)

Event Time Altitude Azimuth Distance (km) Brightness Sun altitude
Exits shadow 05:15:43 14° 64° (ENE) 1,271 -0.7 -29.1°
Drops below altitude 10° 05:16:13 10° 66° (ENE) 1,468 -0.3 -29.0°
Sets 05:18:19 0° 70° (ENE) 2,330 1.0 -28.7°
